Retour au catalogue

STARLINK-31824

ActifCommunicationsVLEO
NORAD 59804·PAYLOAD·🇺🇸 United States

Lancé May 18, 2024 depuis Cape Canaveral Space Force Station

Loading…

Prochains Passages (prochaines 24 heures)

TLE

FraisSource: CelesTrak SupGP

Époque: Sep 15, 2026, 02:28 UTC

1 59804C 24093Y   26258.10326389 -.00006523  00000+0 -23645-3 0  2587
2 59804  42.9994 219.4282 0001288 268.4520 354.3379 15.27555915    19

Suivez STARLINK-31824 en temps réel avec AllMySat

Download on the App Store